Weather History for Milton, FL

Change the Weather History Date:

Saturday, January 19, 2013

  Actual Average (KNSE) Record (KNSE)
Temperature  
Mean Temperature 47 °F -  
Max Temperature 64 °F 59 °F 71 °F (1999)
Min Temperature 30 °F 40 °F 25 °F (1997)
Degree Days  
Heating Degree Days 18    
Moisture  
Dew Point 37 °F    
Average Humidity 67    
Maximum Humidity 93    
Minimum Humidity 43    
Precipitation  
Precipitation 0.00 in - - ()
Sea Level Pressure  
Sea Level Pressure 30.30 in    
Wind  
Wind Speed 4 mph (NE)    
Max Wind Speed 9 mph    
Max Gust Speed -    
Visibility 10 miles    
Events      
Averages and records for this station are not official NWS values.
T = Trace of Precipitation, MM = Missing Value Source: NWS Daily Summary

Daily Weather History Graph

Daily Weather History Graph

Search for Another Location

Airport:

Trip Planner

Search our weather history database for the weather conditions in past years. The results will help you decide how hot, cold, wet, or windy it might be!

Date:

Astronomy

Jan. 19, 2013 Rise Set
Actual Time 6:45 AM CST 5:12 PM CST
Civil Twilight 6:19 AM CST 5:38 PM CST
Nautical Twilight 5:49 AM CST 6:08 PM CST
Astronomical Twilight 5:21 AM CST 6:37 PM CST
Moon 11:34 AM CST (1/19) 12:25 AM CST (1/19)
Length of Visible Light 11h 19m
Length of Day
10h 27m
First Quarter, 57% of the Moon is Illuminated
Jan 19
First Quarter
Jan 26
Full
Feb 3
Last Quarter
Feb 10
New
Feb 17
First Quarter

Hourly Weather History & Observations

Time (CST) Temp. Windchill Dew Point Humidity Pressure Visibility Wind Dir Wind Speed Gust Speed Precip Events Conditions
12:56 AM 32.0 °F - 28.0 °F 85% 30.34 in 10.0 mi Calm Calm - N/A   Clear
1:56 AM 30.9 °F 27.5 °F 28.0 °F 89% 30.35 in 10.0 mi NNW 3.5 mph - N/A   Clear
2:56 AM 34.0 °F 28.0 °F 28.9 °F 82% 30.35 in 10.0 mi North 6.9 mph - N/A   Clear
3:56 AM 37.0 °F 31.6 °F 30.9 °F 79% 30.34 in 10.0 mi NE 6.9 mph - N/A   Clear
4:56 AM 37.9 °F 33.5 °F 30.0 °F 73% 30.34 in 10.0 mi NNE 5.8 mph - N/A   Clear
5:56 AM 36.0 °F 33.3 °F 30.0 °F 79% 30.34 in 10.0 mi NNE 3.5 mph - N/A   Clear
6:56 AM 37.0 °F 33.3 °F 30.0 °F 76% 30.36 in 10.0 mi NE 4.6 mph - N/A   Clear
7:56 AM 42.1 °F 37.7 °F 32.0 °F 67% 30.37 in 10.0 mi NE 6.9 mph - N/A   Clear
8:56 AM 46.9 °F - 33.1 °F 59% 30.38 in 10.0 mi East 6.9 mph - N/A   Clear
9:56 AM 55.0 °F - 33.1 °F 43% 30.38 in 10.0 mi East 8.1 mph - N/A   Clear
10:33 AM 57.2 °F - 35.6 °F 44% 30.39 in 10.0 mi East 9.2 mph - N/A   Partly Cloudy
10:56 AM 60.1 °F - 37.9 °F 44% 30.34 in 10.0 mi East 6.9 mph - N/A   Partly Cloudy
11:56 AM 63.0 °F - 39.9 °F 43% 30.30 in 10.0 mi NE 8.1 mph - N/A   Mostly Cloudy
12:56 PM 63.0 °F - 39.9 °F 43% 30.27 in 10.0 mi NNE 5.8 mph - N/A   Overcast
1:56 PM 64.0 °F - 41.0 °F 43% 30.25 in 10.0 mi Variable 6.9 mph - N/A   Overcast
2:56 PM 62.1 °F - 41.0 °F 46% 30.22 in 10.0 mi North 4.6 mph - N/A   Mostly Cloudy
3:56 PM 62.1 °F - 41.0 °F 46% 30.22 in 10.0 mi ENE 3.5 mph - N/A   Clear
4:56 PM 57.9 °F - 45.0 °F 62% 30.23 in 10.0 mi SE 3.5 mph - N/A   Clear
5:56 PM 55.9 °F - 43.0 °F 62% 30.23 in 10.0 mi ENE 3.5 mph - N/A   Clear
6:56 PM 55.0 °F - 43.0 °F 64% 30.24 in 10.0 mi East 4.6 mph - N/A   Mostly Cloudy
7:56 PM 48.9 °F - 43.0 °F 80% 30.25 in 10.0 mi Calm Calm - N/A   Mostly Cloudy
8:56 PM 46.9 °F - 42.1 °F 83% 30.24 in 10.0 mi Calm Calm - N/A   Clear
9:56 PM 44.1 °F 42.5 °F 41.0 °F 89% 30.22 in 10.0 mi NNW 3.5 mph - N/A   Clear
10:56 PM 43.0 °F - 41.0 °F 93% 30.22 in 10.0 mi Calm Calm - N/A   Clear
11:56 PM 45.0 °F - 42.1 °F 90% 30.22 in 10.0 mi Calm Calm - N/A   Clear